ONEWEB-0318 (49104 NORAD) Tracking and Keplerian Element Data

This shows tracking and keplerian element data for the satellite.

Feedback or suggestion? Click here.




ElementValue
Catalog49104
NameONEWEB-0318
Epoch Orbit563
Epoch Day262.16668981
Epoch Year2021
RAAN356.3187
Inclination87.3335
Eccentricity0.0019548
Argument of Perigee178.261
Mean Anonmoly122.6049
Mean Motion15.23278682
Decay Rate-0.00817334
L11 49104U 21075AF 21262.16668981 -.00817334 00000-0 -37107-1 0 9998
L22 49104 87.3335 356.3187 0019548 178.2610 122.6049 15.23278682 5636

Live tracking and technical data element details for ONEWEB-0318 (NORAD 49104). ONEWEB-0318 can be tracked NOW for your location showing map with azimuth and elevation plus other details from your city location.

Track the satellite on the map from your city or location and see movement details for azimuth, elevation, latitude, longitude, range, height, and movement on the map or in text.







IsCatalogInMostPopularTable: catalog: 49104, numindb: 9
Update: records affected: 1



GetName: 49104 ONEWEB-0318

Hit Count: updated at: Fri, 24 Sep 2021 17:16:15 GMT